Date String (YYYY-MM-DD hh:mm:ss) UTC,Instrument flags,Ambient pressure (hPa),Sample flow (lpm),Bypass flow (lpm),Sample temperature (°C),Ambient temperature (°C),ASC tube jacket temperature (°C),LED temperature (°C),Box temperature (°C),Sample RH (%),Span deviation,Mass concentration (μg/m³),Mass concentration (μg/m³),Mass concentration (μg/m³)
DateTimeUTC,F1_M11,P_M11,Q1_M11,Q2_M11,T1_M11,T2_M11,T3_M11,T4_M11,T5_M11,U1_M11,ZSPAN_M11,X0_M11,X2_M11,X1_M11
2023-03-10 01:00:00,,0826.0,5.01,0.00,21.2,19.1,00.0,30.3,22.8,10.3,0000.0,0008.92,0003.56,0002.75
2023-03-10 01:01:00,,0826.0,5.00,0.00,21.2,19.3,00.0,30.3,22.9,10.3,0000.0,0009.45,0003.56,0002.73
2023-03-10 01:02:00,,0826.1,5.03,0.00,21.3,20.2,00.0,30.3,23.1,10.2,0000.0,0009.48,0003.55,0002.72
2023-03-10 01:03:00,,0826.2,4.99,0.00,21.5,21.3,00.0,30.2,23.4,10.1,0000.0,0009.57,0003.55,0002.72
2023-03-10 01:04:00,,0826.2,5.00,0.00,21.6,22.2,00.0,30.3,23.7,10.0,0000.0,0009.89,0003.54,0002.69
2023-03-10 01:05:00,,0826.2,4.99,0.00,21.7,21.9,00.0,30.3,23.6,10.0,0000.0,0009.84,0003.53,0002.68
2023-03-10 01:06:00,,0826.2,5.02,0.00,21.7,21.3,00.0,30.4,23.5,10.0,0000.0,0010.17,0003.55,0002.66
2023-03-10 01:07:00,,0826.2,5.00,0.00,21.6,20.8,00.0,30.4,23.3,10.0,0000.0,0010.09,0003.50,0002.63
2023-03-10 01:08:00,,0826.1,5.00,0.00,21.6,20.5,00.0,30.4,23.2,10.0,0000.0,0010.07,0003.47,0002.62
2023-03-10 01:09:00,,0826.1,5.00,0.00,21.6,20.1,00.0,30.4,23.1,10.0,0000.0,0010.73,0003.51,0002.63
2023-03-10 01:10:00,,0826.2,4.99,0.00,21.5,19.9,00.0,30.4,23.1,09.9,0000.0,0011.33,0003.56,0002.63
2023-03-10 01:11:00,,0826.2,5.00,0.00,21.5,19.7,00.0,30.4,23.1,10.0,0000.0,0010.79,0003.60,0002.63
2023-03-10 01:12:00,,0826.2,5.01,0.00,21.5,19.6,00.0,30.4,23.0,10.1,0000.0,0010.30,0003.61,0002.64
2023-03-10 01:13:00,,0826.3,5.00,0.00,21.4,19.5,00.0,30.3,23.0,10.1,0000.0,0010.46,0003.61,0002.63
2023-03-10 01:14:00,,0826.4,5.00,0.00,21.4,19.5,00.0,30.3,23.0,10.1,0000.0,0010.33,0003.58,0002.62
2023-03-10 01:15:00,,0826.4,4.98,0.00,21.4,19.4,00.0,30.3,23.0,10.1,0000.0,0010.57,0003.58,0002.63
2023-03-10 01:16:00,,0826.3,4.99,0.00,21.3,19.4,00.0,30.3,22.9,10.1,0000.0,0011.02,0003.58,0002.63
2023-03-10 01:17:00,,0826.2,5.01,0.00,21.3,19.3,00.0,30.3,22.9,10.1,0000.0,0010.92,0003.59,0002.63
2023-03-10 01:18:00,,0826.3,4.99,0.00,21.3,19.3,00.0,30.2,22.8,10.1,0000.0,0011.14,0003.62,0002.65
2023-03-10 01:19:00,,0826.4,5.01,0.00,21.2,19.2,00.0,30.2,22.8,10.1,0000.0,0010.98,0003.62,0002.65
2023-03-10 01:20:00,,0826.4,5.01,0.00,21.2,19.2,00.0,30.2,22.7,10.1,0000.0,0010.97,0003.58,0002.63
2023-03-10 01:21:00,,0826.4,5.01,0.00,21.2,19.2,00.0,30.2,22.7,10.1,0000.0,0011.06,0003.54,0002.62
2023-03-10 01:22:00,,0826.4,4.99,0.00,21.2,19.2,00.0,30.2,22.7,10.1,0000.0,0011.11,0003.52,0002.62
2023-03-10 01:23:00,,0826.4,5.00,0.00,21.2,19.5,00.0,30.1,22.8,10.1,0000.0,0010.93,0003.47,0002.61
2023-03-10 01:24:00,,0826.4,5.01,0.00,21.3,20.8,00.0,30.1,23.1,10.0,0000.0,0010.98,0003.45,0002.61
2023-03-10 01:25:00,,0826.4,4.99,0.00,21.4,22.0,00.0,30.1,23.5,10.0,0000.0,0011.53,0003.47,0002.59
2023-03-10 01:26:00,,0826.4,4.99,0.00,21.5,22.1,00.0,30.2,23.5,09.9,0000.0,0011.60,0003.54,0002.59
2023-03-10 01:27:00,,0826.4,5.01,0.00,21.6,21.6,00.0,30.2,23.5,09.9,0000.0,0011.93,0003.57,0002.59
2023-03-10 01:28:00,,0826.4,5.02,0.00,21.6,21.2,00.0,30.3,23.4,09.8,0000.0,0011.89,0003.55,0002.59
2023-03-10 01:29:00,,0826.4,4.99,0.00,21.6,20.8,00.0,30.3,23.3,09.8,0000.0,0011.72,0003.54,0002.58
2023-03-10 01:30:00,,0826.5,4.99,0.00,21.5,20.4,00.0,30.3,23.2,09.8,0000.0,0012.18,0003.55,0002.57
2023-03-10 01:31:00,,0826.5,5.00,0.00,21.5,20.2,00.0,30.3,23.2,09.9,0000.0,0011.95,0003.53,0002.56
2023-03-10 01:32:00,,0826.5,5.01,0.00,21.5,20.1,00.0,30.3,23.1,09.8,0000.0,0011.39,0003.53,0002.56
2023-03-10 01:33:00,,0826.5,5.01,0.00,21.5,20.0,00.0,30.3,23.1,09.8,0000.0,0011.35,0003.50,0002.56
2023-03-10 01:34:00,,0826.5,5.00,0.00,21.5,19.9,00.0,30.3,23.1,09.8,0000.0,0012.07,0003.53,0002.54
2023-03-10 01:35:00,,0826.5,5.01,0.00,21.5,19.8,00.0,30.3,23.1,09.8,0000.0,0011.83,0003.52,0002.54
2023-03-10 01:36:00,,0826.5,5.01,0.00,21.4,19.7,00.0,30.3,23.0,09.8,0000.0,0012.36,0003.51,0002.54
2023-03-10 01:37:00,,0826.5,4.99,0.00,21.4,19.7,00.0,30.3,23.0,09.8,0000.0,0012.06,0003.41,0002.53
2023-03-10 01:38:00,,0826.5,5.01,0.00,21.4,19.7,00.0,30.3,23.0,09.8,0000.0,0011.16,0003.39,0002.52
2023-03-10 01:39:00,,0826.5,5.00,0.00,21.4,19.7,00.0,30.2,23.0,09.8,0000.0,0011.38,0003.37,0002.51
2023-03-10 01:40:00,,0826.5,4.98,0.00,21.4,19.7,00.0,30.2,23.0,09.8,0000.0,0011.81,0003.38,0002.52
2023-03-10 01:41:00,,0826.5,4.99,0.00,21.4,19.7,00.0,30.2,22.9,09.8,0000.0,0011.95,0003.37,0002.52
2023-03-10 01:42:00,,0826.4,5.00,0.00,21.4,19.7,00.0,30.2,23.0,09.8,0000.0,0011.99,0003.41,0002.53
2023-03-10 01:43:00,,0826.5,5.00,0.00,21.4,19.8,00.0,30.2,23.0,09.8,0000.0,0012.18,0003.42,0002.53
2023-03-10 01:44:00,,0826.5,5.00,0.00,21.4,19.8,00.0,30.2,23.0,09.8,0000.0,0012.45,0003.40,0002.51
2023-03-10 01:45:00,,0826.5,5.01,0.00,21.4,19.9,00.0,30.2,23.0,09.8,0000.0,0011.95,0003.47,0002.52
2023-03-10 01:46:00,,0826.5,4.99,0.00,21.4,19.9,00.0,30.2,23.1,09.8,0000.0,0011.94,0003.48,0002.51
2023-03-10 01:47:00,,0826.5,5.00,0.00,21.4,19.9,00.0,30.2,23.1,09.7,0000.0,0011.23,0003.50,0002.52
2023-03-10 01:48:00,,0826.5,5.00,0.00,21.4,19.9,00.0,30.2,23.1,09.7,0000.0,0011.27,0003.50,0002.51
2023-03-10 01:49:00,,0826.5,4.99,0.00,21.4,19.8,00.0,30.2,23.1,09.7,0000.0,0011.57,0003.49,0002.50
2023-03-10 01:50:00,,0826.5,4.99,0.00,21.4,19.8,00.0,30.2,23.0,09.7,0000.0,0011.29,0003.48,0002.50
2023-03-10 01:51:00,,0826.5,5.00,0.00,21.4,19.9,00.0,30.2,23.0,09.7,0000.0,0010.80,0003.44,0002.48
2023-03-10 01:52:00,,0826.6,4.97,0.00,21.4,20.8,00.0,30.2,23.3,09.6,0000.0,0010.08,0003.46,0002.47
2023-03-10 01:53:00,,0826.6,4.98,0.00,21.6,22.0,00.0,30.2,23.6,09.6,0000.0,0009.63,0003.44,0002.46
2023-03-10 01:54:00,,0826.6,5.01,0.00,21.7,22.4,00.0,30.2,23.7,09.5,0000.0,0009.47,0003.42,0002.47
2023-03-10 01:55:00,,0826.5,4.99,0.00,21.7,21.9,00.0,30.3,23.7,09.5,0000.0,0009.38,0003.48,0002.48
2023-03-10 01:56:00,,0826.5,4.98,0.00,21.7,21.5,00.0,30.3,23.6,09.4,0000.0,0009.22,0003.42,0002.47
2023-03-10 01:57:00,,0826.5,5.00,0.00,21.7,21.1,00.0,30.4,23.5,09.5,0000.0,0009.21,0003.41,0002.46
2023-03-10 01:58:00,,0826.5,4.99,0.00,21.7,20.8,00.0,30.4,23.4,09.4,0000.0,0009.24,0003.41,0002.46
2023-03-10 01:59:00,,0826.5,5.00,0.00,21.7,20.6,00.0,30.4,23.4,09.5,0000.0,0008.97,0003.42,0002.47
